Wind_Speed
88 86 83 81 80 81 81 79 77 78 78 77 76 74 75 76 78 74 70 76 77 78 76 80 82 84 87 89 91 94 97 99 102 104 105 107 104 95 90 86 77 74 76
85 82 82 82 82 83 82 82 81 80 78 76 73 71 72 73 71 73 76 73 75 76 80 83 85 89 93 97 98 101 103 106 109 112 112 111 102 95 94 86 84 81 79
84 81 81 82 82 82 81 81 80 79 77 74 73 71 70 71 75 78 79 81 81 82 85 87 91 95 99 102 105 107 108 112 114 117 119 115 106 98 94 92 91 89 87
85 83 83 83 83 80 79 79 77 76 74 74 74 76 77 78 79 80 85 87 88 91 93 93 97 101 104 107 109 111 114 117 117 118 114 110 104 101 99 99 96 96 91
89 86 86 84 83 82 80 78 78 77 78 78 79 80 83 82 82 84 87 92 95 97 100 104 105 106 108 111 116 117 119 117 120 113 107 104 106 107 108 106 108 108 107
93 91 88 87 87 85 83 82 82 83 83 84 85 85 85 86 88 89 89 93 96 101 104 107 111 115 116 119 119 121 122 124 117 111 108 107 109 111 113 117 116 114 110
98 96 93 90 89 88 88 86 86 87 87 87 88 88 89 91 93 94 95 95 99 102 106 109 112 117 120 123 125 128 126 125 121 121 116 112 108 105 102 100 97 98 100
98 97 96 94 94 95 94 92 92 92 92 92 93 92 94 96 97 97 100 101 102 106 110 114 115 119 122 122 125 123 119 123 122 119 110 103 99 92 88 88 95 94 94
103 100 98 97 96 95 94 95 95 96 95 95 96 98 98 97 96 98 101 105 107 111 113 116 119 118 116 115 110 115 117 119 117 106 103 97 91 90 91 94 82 98 94
110 107 104 102 99 98 98 98 98 98 98 98 99 99 99 101 102 105 106 108 112 114 117 117 116 111 107 107 109 111 112 107 105 97 95 94 89 89 93 88 91 90 95
114 112 108 105 104 104 103 102 102 102 101 102 102 102 103 105 106 107 111 111 113 115 115 113 107 106 104 106 108 98 98 95 92 87 86 86 83 79 75 70 70 76 84
115 114 113 112 111 110 108 108 107 107 106 106 107 108 107 109 110 110 112 113 112 107 99 99 99 101 104 97 92 86 83 85 87 85 80 70 63 59 56 54 52 59 68
112 112 111 111 111 110 109 109 109 108 107 107 109 110 109 109 111 111 109 103 94 92 93 96 99 97 90 84 81 74 73 74 77 78 75 63 54 50 46 44 44 46 52
111 111 111 111 111 111 111 112 111 111 110 108 109 112 111 107 100 96 87 87 88 91 96 93 86 81 77 75 68 65 63 67 69 69 63 60 57 48 41 36 34 35 39
108 109 109 108 107 106 104 105 105 107 105 102 95 91 87 83 80 81 84 87 91 91 85 80 73 70 68 63 56 57 57 58 57 57 56 50 44 41 31 27 22 21 23
96 99 99 98 96 92 90 90 88 84 81 79 75 75 76 77 81 85 86 85 85 80 75 66 64 63 57 53 52 51 53 53 49 46 48 49 48 40 31 27 22 17 13
82 83 84 84 83 80 79 76 72 72 73 72 73 77 78 79 82 84 85 82 73 67 62 60 59 52 52 48 48 48 48 47 45 45 43 43 42 42 38 34 30 24 19
72 69 69 69 68 66 64 66 69 71 70 72 76 79 81 82 83 83 75 68 60 57 55 55 51 50 49 46 45 45 46 43 42 42 40 40 39 37 35 31 29 27 26
69 65 60 60 59 61 62 64 68 74 76 80 79 81 84 83 77 70 63 53 51 51 50 49 48 45 44 44 43 44 46 44 43 43 40 38 39 40 39 38 38 38 38
65 68 64 59 61 63 65 69 69 74 72 78 82 77 76 71 64 58 53 50 47 46 46 44 44 43 44 43 43 43 44 44 44 44 43 42 42 43 42 42 42 42 42
54 59 64 67 65 65 67 68 71 74 71 68 65 64 59 57 52 50 48 46 43 43 40 40 43 43 43 43 43 43 45 45 45 44 44 44 44 45 45 45 47 47 49
50 51 53 55 57 59 60 61 60 55 53 54 52 51 51 49 48 47 47 44 42 42 41 43 45 45 44 44 43 44 46 47 47 48 49 49 50 50 50 50 51 53 55
52 53 54 53 51 50 49 44 45 44 45 45 46 48 46 44 45 43 43 42 42 42 43 45 46 47 46 46 45 45 47 48 50 51 52 53 54 54 55 56 56 58 61
50 49 49 47 45 41 40 39 38 39 40 44 46 44 40 40 40 42 42 41 41 42 43 45 47 48 48 49 48 48 48 50 52 54 55 57 58 59 60 60 61 63 66
46 47 46 41 39 39 35 36 38 37 39 46 45 40 40 39 38 39 39 40 42 43 44 46 47 49 50 50 50 50 50 51 53 55 58 59 62 63 63 64 66 68 71
38 39 38 39 37 35 36 37 37 39 42 43 42 41 39 38 39 38 38 39 40 41 43 45 47 49 50 50 51 51 52 53 56 59 61 63 65 65 66 68 70 72 75
Wind_Direction
238 241 243 244 246 249 251 253 255 258 262 264 265 267 270 273 275 278 276 277 280 284 287 289 291 291 292 294 296 297 298 299 300 302 303 305 305 303 298 297 296 294 293
238 241 243 245 247 250 253 255 257 258 260 263 266 268 271 274 274 274 276 278 280 282 284 287 290 291 293 295 296 296 297 298 301 302 302 304 302 299 299 296 295 296 294
238 241 244 246 248 250 253 255 258 260 262 263 264 265 267 271 274 276 277 278 280 281 284 287 288 291 293 294 295 296 297 299 301 302 303 303 300 298 298 297 295 294 294
238 240 244 247 249 250 252 254 256 258 260 262 265 268 269 270 274 279 281 283 284 284 285 286 287 290 292 293 296 296 298 301 301 302 301 300 300 299 297 295 292 289 289
238 240 242 246 249 252 253 255 257 259 262 264 266 269 270 274 276 278 280 282 285 286 288 289 290 291 292 295 296 298 299 299 300 300 298 297 297 297 294 291 289 287 285
238 240 243 245 247 251 254 256 258 260 262 264 267 271 274 276 277 278 280 282 286 288 291 291 292 295 295 296 297 298 298 299 299 297 295 293 293 292 290 289 286 284 283
241 243 244 247 249 251 253 256 259 261 265 267 270 272 274 276 279 280 283 285 286 287 289 291 294 295 296 297 298 299 300 298 298 297 296 296 294 291 287 287 282 278 275
241 244 246 249 251 252 253 255 258 261 264 267 270 273 275 279 280 281 284 286 287 288 289 291 294 295 297 298 298 299 299 299 297 299 299 296 294 288 286 284 285 279 276
241 243 246 248 251 254 256 258 261 263 265 268 270 273 277 279 280 282 283 285 287 288 290 292 294 296 298 299 298 299 299 299 299 301 301 297 294 289 286 282 280 274 268
242 244 246 248 250 253 256 258 261 263 266 268 270 273 276 277 279 281 283 285 287 289 291 293 294 296 297 298 299 299 299 299 301 303 304 301 296 291 286 278 268 263 263
245 246 248 250 252 254 256 259 261 263 265 267 270 273 275 277 280 281 284 287 289 291 293 294 294 296 296 299 299 300 299 299 303 306 307 302 296 290 285 278 267 262 256
244 247 250 252 254 256 258 260 262 264 266 268 271 274 276 278 281 284 285 288 290 291 292 292 294 296 298 298 299 299 301 303 306 308 311 308 305 299 292 282 271 261 256
247 249 251 253 255 257 260 262 264 266 268 270 272 275 280 280 282 285 286 287 288 290 290 293 295 296 297 296 298 301 302 303 307 311 315 321 319 311 301 290 280 268 256
249 251 252 254 256 258 261 263 265 267 270 272 273 275 278 280 282 284 285 286 286 287 291 293 295 295 294 296 299 301 303 307 310 314 319 330 328 322 310 300 291 277 262
247 250 252 255 257 260 263 264 266 268 271 274 275 276 279 280 281 282 283 283 287 290 292 293 293 293 295 296 298 300 305 309 314 321 326 328 333 321 318 310 306 291 274
246 249 251 254 258 261 263 264 267 270 270 273 275 274 277 278 280 281 285 288 290 290 290 291 292 294 295 297 298 302 308 311 318 326 331 337 334 337 348 348 348 348 323
247 249 251 254 256 259 261 265 266 267 270 272 274 274 279 279 282 284 288 288 288 288 288 290 292 292 295 297 299 304 310 315 323 328 332 335 343 347 351 351 356 355 341
246 250 254 255 256 259 260 262 265 267 268 269 273 275 277 280 283 287 286 288 287 286 287 289 289 292 292 294 299 304 308 316 321 325 329 331 333 337 342 346 346 341 333
241 247 249 251 255 259 259 261 262 263 266 271 273 276 278 280 284 283 285 286 285 285 287 287 288 289 289 295 298 301 308 314 318 321 325 327 331 334 336 336 334 331 328
241 244 247 250 253 257 259 262 264 266 269 272 276 279 280 280 280 283 286 287 284 284 285 285 289 290 291 295 295 300 307 312 317 322 322 325 328 329 329 327 324 321 318
244 246 248 248 252 254 259 263 265 271 274 276 276 277 277 278 281 286 286 285 282 282 284 285 289 292 294 295 296 297 303 308 312 316 318 318 320 322 321 320 319 318 316
241 244 249 252 254 257 263 266 268 271 271 271 273 274 277 283 285 283 286 282 280 280 284 285 287 289 293 294 296 295 297 303 308 311 315 316 318 318 318 315 315 314 314
244 247 250 253 255 258 262 261 263 263 267 272 276 278 284 285 286 284 283 280 278 279 281 283 286 289 291 294 294 294 294 297 301 306 310 313 313 313 312 311 311 310 310
243 244 247 251 254 254 252 256 257 265 271 279 282 285 285 285 288 284 282 278 278 278 279 281 285 288 290 292 293 295 295 297 298 302 306 309 310 310 310 308 308 308 309
242 245 247 245 243 247 247 252 261 270 275 281 286 286 287 290 290 289 282 278 277 277 278 281 285 287 290 292 294 296 298 297 298 300 303 306 307 307 307 307 307 308 310
237 238 237 237 240 240 245 254 265 274 277 280 282 285 289 292 293 292 286 282 280 279 280 281 285 288 291 294 295 296 298 298 298 300 303 305 305 306 306 306 307 308 311
Height
10748 10760 10769 10772 10776 10780 10784 10790 10794 10793 10794 10800 10804 10804 10802 10803 10803 10804 10798 10796 10796 10792 10788 10781 10777 10773 10771 10768 10763 10756 10751 10744 10738 10735 10729 10725 10717 10711 10704 10703 10700 10693 10686
10740 10751 10756 10757 10761 10765 10771 10776 10781 10784 10786 10787 10788 10790 10791 10790 10788 10785 10786 10787 10784 10778 10775 10772 10765 10758 10753 10748 10744 10740 10733 10726 10718 10712 10710 10709 10702 10690 10683 10681 10677 10675 10673
10733 10741 10743 10744 10747 10753 10759 10762 10766 10770 10773 10776 10776 10780 10781 10776 10770 10768 10769 10768 10769 10766 10763 10757 10751 10745 10738 10732 10725 10718 10714 10705 10698 10689 10682 10678 10676 10670 10664 10658 10654 10651 10651
10721 10726 10729 10731 10735 10742 10747 10750 10753 10756 10759 10761 10763 10763 10765 10766 10762 10757 10750 10747 10746 10744 10742 10744 10737 10729 10720 10713 10708 10700 10694 10686 10678 10669 10658 10647 10644 10643 10643 10637 10633 10628 10628
10706 10712 10715 10721 10723 10727 10733 10737 10740 10743 10745 10747 10748 10748 10746 10749 10751 10748 10741 10732 10726 10724 10720 10715 10713 10710 10704 10694 10685 10677 10672 10665 10657 10650 10641 10632 10622 10615 10611 10612 10608 10604 10603
10692 10697 10703 10707 10711 10716 10719 10723 10726 10728 10729 10731 10731 10732 10733 10732 10730 10728 10728 10723 10716 10705 10698 10691 10684 10681 10675 10670 10663 10656 10647 10640 10632 10626 10621 10613 10603 10593 10584 10580 10578 10576 10572
10677 10682 10689 10693 10697 10702 10705 10709 10711 10713 10714 10715 10716 10717 10716 10714 10712 10710 10709 10706 10700 10693 10687 10678 10669 10659 10649 10642 10634 10625 10618 10608 10601 10592 10588 10580 10571 10563 10551 10546 10549 10546 10546
10662 10667 10673 10679 10683 10686 10691 10695 10697 10698 10699 10700 10701 10702 10701 10698 10695 10692 10689 10685 10680 10675 10668 10662 10654 10643 10634 10622 10613 10602 10588 10577 10567 10563 10552 10544 10537 10530 10525 10523 10519 10521 10521
10646 10652 10657 10663 10668 10673 10679 10682 10684 10684 10686 10687 10686 10684 10685 10682 10678 10676 10671 10667 10661 10655 10648 10642 10634 10625 10614 10602 10590 10579 10564 10550 10539 10531 10520 10508 10503 10496 10491 10496 10494 10489 10495
10628 10637 10643 10650 10656 10659 10664 10667 10669 10669 10671 10672 10670 10670 10668 10665 10663 10658 10654 10648 10642 10636 10628 10620 10614 10606 10596 10585 10572 10560 10545 10528 10518 10507 10492 10478 10466 10459 10454 10456 10456 10459 10457
10612 10621 10629 10636 10639 10643 10648 10650 10651 10653 10654 10654 10654 10653 10652 10649 10646 10641 10636 10630 10624 10616 10607 10599 10592 10585 10575 10565 10553 10539 10526 10509 10500 10489 10475 10455 10438 10427 10420 10419 10421 10422 10429
10594 10604 10612 10617 10620 10625 10630 10631 10634 10636 10637 10637 10637 10636 10633 10629 10627 10625 10617 10612 10604 10596 10589 10581 10573 10565 10556 10544 10534 10522 10508 10495 10481 10467 10455 10436 10418 10405 10397 10393 10394 10396 10400
10578 10585 10592 10598 10602 10607 10611 10614 10616 10617 10618 10619 10618 10617 10615 10610 10608 10605 10599 10593 10584 10578 10571 10564 10556 10547 10537 10527 10518 10509 10497 10485 10470 10455 10437 10422 10406 10393 10383 10377 10375 10376 10378
10558 10565 10573 10578 10584 10588 10592 10594 10597 10599 10600 10600 10598 10597 10595 10592 10589 10585 10579 10573 10567 10561 10555 10546 10538 10529 10520 10513 10505 10496 10487 10474 10460 10445 10430 10412 10395 10385 10375 10367 10362 10362 10363
10540 10547 10555 10560 10565 10570 10573 10574 10578 10580 10580 10580 10578 10576 10574 10572 10570 10566 10561 10555 10550 10543 10536 10529 10522 10513 10505 10499 10494 10485 10476 10465 10451 10435 10421 10411 10400 10386 10373 10363 10356 10354 10355
10523 10531 10537 10543 10548 10552 10555 10557 10559 10561 10560 10560 10559 10558 10556 10555 10552 10547 10543 10537 10531 10524 10518 10513 10506 10499 10492 10487 10482 10474 10465 10455 10443 10429 10416 10403 10392 10383 10371 10363 10357 10354 10356
10509 10515 10522 10527 10531 10534 10538 10542 10543 10545 10544 10543 10544 10541 10539 10537 10533 10528 10524 10518 10513 10507 10502 10498 10492 10486 10480 10475 10470 10463 10455 10446 10435 10424 10412 10403 10392 10381 10372 10366 10362 10360 10360
10496 10502 10507 10512 10516 10520 10524 10527 10530 10530 10529 10528 10527 10525 10521 10519 10516 10510 10506 10502 10497 10492 10488 10484 10478 10474 10470 10465 10459 10453 10446 10438 10428 10419 10410 10401 10393 10384 10376 10371 10367 10364 10363
10485 10490 10495 10500 10504 10507 10510 10513 10515 10515 10514 10511 10510 10508 10504 10502 10498 10494 10491 10487 10483 10479 10475 10471 10466 10463 10459 10454 10449 10443 10436 10428 10420 10412 10404 10396 10388 10380 10374 10369 10364 10360 10357
10473 10478 10483 10488 10492 10495 10497 10499 10500 10500 10497 10495 10493 10488 10487 10485 10482 10480 10476 10473 10470 10466 10462 10458 10454 10451 10448 10444 10438 10432 10425 10418 10411 10404 10395 10388 10382 10376 10369 10363 10359 10355 10351
10460 10465 10470 10475 10479 10481 10483 10484 10485 10484 10482 10479 10476 10474 10472 10470 10469 10467 10463 10460 10456 10453 10449 10446 10443 10440 10436 10432 10426 10421 10416 10409 10403 10396 10389 10382 10375 10369 10362 10356 10350 10345 10340
10450 10454 10458 10462 10466 10468 10469 10471 10470 10469 10467 10465 10463 10462 10460 10459 10457 10454 10450 10446 10444 10441 10438 10435 10432 10429 10425 10420 10415 10410 10405 10399 10393 10386 10379 10372 10365 10358 10352 10346 10339 10333 10326
10439 10443 10447 10450 10453 10456 10457 10457 10458 10457 10456 10455 10453 10452 10450 10447 10443 10440 10436 10434 10432 10429 10426 10423 10421 10418 10414 10409 10405 10400 10394 10389 10383 10376 10369 10362 10355 10349 10342 10335 10327 10320 10312
10428 10432 10436 10439 10442 10444 10446 10447 10447 10447 10446 10444 10442 10440 10438 10435 10431 10427 10424 10422 10420 10417 10414 10412 10409 10406 10401 10397 10392 10387 10382 10377 10371 10365 10358 10351 10343 10336 10329 10322 10314 10305 10296
10417 10420 10424 10427 10430 10433 10435 10437 10437 10438 10436 10433 10430 10428 10425 10423 10420 10416 10413 10410 10407 10405 10403 10400 10396 10392 10388 10384 10380 10374 10369 10364 10358 10352 10345 10339 10331 10323 10315 10307 10298 10289 10279
10407 10410 10414 10417 10420 10423 10426 10427 10427 10427 10425 10422 10419 10417 10415 10412 10408 10405 10401 10398 10395 10393 10390 10387 10383 10380 10376 10371 10366 10361 10356 10350 10344 10337 10331 10324 10317 10309 10300 10291 10281 10272 10262